Wind_Speed
42 41 40 39 39 38 37 36 36 36 36 36 36 37 38 39 39 40 40 39 39 39 39 39 39 38 38 37 37 36 36 36 36 37 36 36 36 36 36 36 37 37 38 39 40 41 42 43 43 43 44 44 45 46 47 49 51 53 54 55 55 55 55 55 55 54 52 50 48 46 44 44 45 47 48 50 51 52 53 53 52 50 47 44 40 35
44 42 41 41 40 40 39 39 38 37 37 37 37 38 38 39 40 40 40 39 39 39 39 39 39 39 39 39 38 37 37 37 38 38 37 37 36 36 36 36 36 36 37 38 39 41 42 43 43 44 45 46 47 47 48 49 50 52 53 55 56 56 56 55 54 53 52 50 48 47 46 46 47 49 50 52 53 54 55 55 54 52 48 44 39 35
46 44 43 42 42 41 41 40 40 39 38 38 38 38 39 40 41 41 40 40 40 40 41 41 41 41 41 41 40 40 39 40 40 40 39 38 37 37 36 36 36 36 37 38 39 41 42 43 43 44 46 47 48 49 49 49 50 50 51 54 56 57 56 55 54 52 51 50 49 49 49 50 50 52 53 55 56 57 57 57 56 55 52 48 44 41
49 46 44 43 43 42 42 42 41 41 40 40 39 40 40 41 42 42 42 42 42 42 43 43 43 42 42 42 42 42 42 43 43 42 40 39 38 38 37 37 38 38 39 39 40 41 42 43 44 45 46 48 48 49 49 49 49 48 49 52 55 57 56 55 53 52 51 51 51 51 52 53 53 55 56 57 59 59 59 58 57 57 55 53 50 47
52 48 45 44 43 43 43 42 42 42 42 41 41 41 41 42 43 43 44 44 44 45 46 46 45 43 42 42 42 44 45 45 44 43 41 39 39 38 38 39 40 40 41 41 42 42 43 44 45 46 47 48 48 48 48 48 47 46 47 50 54 55 55 54 53 52 51 52 52 53 54 55 56 57 57 58 58 57 56 54 54 53 52 51 49 47
57 51 47 45 44 44 43 43 43 43 43 43 42 42 42 43 43 44 45 45 46 47 47 47 46 45 43 42 43 45 46 46 45 43 41 39 38 38 39 40 42 43 43 43 43 44 44 45 46 47 47 47 47 46 45 45 44 44 46 49 52 54 53 52 52 52 52 53 54 55 56 56 56 56 55 54 53 51 48 47 46 46 45 43 42 40
63 57 50 46 45 44 44 43 43 43 44 44 44 44 44 44 44 44 45 46 47 47 48 48 48 47 45 45 45 46 47 47 46 44 41 39 39 40 40 42 43 45 45 45 45 45 45 45 45 45 44 44 44 43 43 42 42 43 46 49 51 52 52 52 52 53 54 55 55 55 55 53 52 50 49 47 44 42 41 40 39 38 37 36 34 33
66 62 54 48 45 44 44 44 44 44 44 45 45 45 46 45 45 46 46 46 47 48 48 49 49 49 48 47 47 48 48 48 47 46 43 41 41 42 42 43 45 46 47 47 47 46 45 45 44 43 42 42 43 43 43 43 44 46 48 51 52 53 53 54 55 55 56 55 54 52 50 48 46 43 41 39 38 36 35 35 34 33 32 31 30 30
62 62 58 51 47 44 43 43 43 43 43 44 45 46 47 47 47 47 47 47 47 48 48 49 49 49 49 49 49 49 49 49 48 47 45 44 44 44 44 45 47 48 49 49 48 47 46 45 43 41 40 40 42 45 48 50 51 53 54 55 56 56 57 57 56 56 54 53 50 47 45 42 40 38 37 35 34 33 32 31 30 30 29 29 29 28
54 58 58 54 49 45 43 42 42 41 41 42 43 45 47 48 49 49 48 48 48 48 48 48 48 49 49 49 49 49 49 49 48 47 46 46 46 46 46 46 48 49 49 50 49 48 47 46 44 41 38 37 39 45 51 55 58 59 59 59 59 58 57 56 55 53 50 48 45 43 40 38 37 35 34 33 32 31 30 29 28 28 28 28 28 27
50 55 57 55 51 47 44 43 43 42 42 41 41 42 45 47 49 49 49 49 49 48 48 48 48 48 47 47 48 48 48 48 47 47 47 47 47 47 47 47 48 49 49 50 49 49 48 47 45 41 37 35 37 44 51 56 60 61 60 59 58 57 55 53 51 48 46 44 42 40 38 36 35 34 33 32 31 30 28 28 27 27 27 27 27 27
50 53 57 56 52 49 47 47 47 47 46 43 41 40 41 44 47 49 49 49 48 48 47 47 47 47 46 46 46 47 47 46 46 47 47 48 48 48 48 48 48 48 49 49 49 49 49 48 46 42 38 35 38 45 51 55 58 59 58 57 56 54 52 50 48 46 45 43 41 39 37 35 34 34 33 32 30 29 28 27 27 27 27 28 28 28
51 53 56 56 54 51 50 51 53 53 50 46 42 40 39 41 43 46 47 48 48 48 47 46 46 46 46 47 46 46 46 46 47 47 47 48 48 48 47 47 47 47 47 47 48 48 49 49 47 44 39 37 40 46 52 55 56 57 57 56 55 54 52 50 49 48 46 45 42 40 38 36 35 34 33 32 30 29 28 28 27 27 27 28 28 29
51 53 56 56 55 52 52 54 56 56 53 49 44 40 38 38 40 42 43 44 45 45 45 44 44 45 45 46 47 48 48 48 48 48 48 48 48 47 47 46 46 46 45 45 45 46 47 48 48 46 42 39 42 47 52 55 55 55 55 55 54 53 52 51 50 50 49 47 44 41 39 37 35 34 33 32 30 29 28 27 27 27 27 28 29 29
52 53 55 56 55 54 54 55 57 57 55 51 46 41 38 38 39 39 39 39 39 40 40 40 41 42 44 45 46 48 49 49 50 49 49 48 48 48 47 46 45 44 43 42 42 44 45 46 48 47 44 41 42 47 52 54 55 55 54 54 53 52 52 52 52 51 50 48 45 42 39 37 36 34 33 31 29 28 27 26 26 26 27 28 28 29
52 53 55 56 56 55 55 55 55 55 54 52 48 44 41 41 41 40 39 37 36 35 36 37 39 41 43 44 45 46 47 48 49 49 48 48 48 48 48 47 46 44 43 41 40 41 42 45 47 47 45 42 42 46 50 53 54 54 54 53 52 52 51 52 52 52 51 48 45 42 39 37 35 33 31 29 27 26 26 25 26 26 27 28 28 29
49 51 53 54 55 55 55 55 54 54 53 52 50 47 45 44 44 43 42 40 38 35 34 34 36 39 42 44 45 46 47 47 48 48 47 47 47 48 48 49 48 48 46 43 41 41 41 43 45 46 44 42 41 43 47 51 53 53 53 52 51 51 51 52 52 52 50 46 43 40 38 36 33 31 28 27 26 26 26 26 26 27 27 28 28 29
45 46 47 48 50 51 52 52 53 53 53 53 51 49 48 47 48 47 46 45 43 40 37 35 35 36 39 43 45 46 47 48 48 48 48 48 48 48 48 49 50 51 51 49 47 45 44 43 43 43 42 41 41 41 45 48 51 52 52 51 51 51 51 52 52 50 47 44 41 39 37 34 31 29 28 27 26 26 26 26 27 27 27 28 28 28
39 40 40 41 42 43 44 46 48 50 52 53 52 51 50 50 51 51 50 49 48 45 42 39 37 37 37 40 43 45 46 47 48 49 49 50 50 49 48 49 51 53 55 54 53 51 48 46 43 42 41 41 41 42 44 46 49 50 51 51 51 51 51 51 51 48 45 41 39 36 34 32 30 29 28 28 27 27 27 27 27 27 27 27 27 28
36 36 36 36 36 36 37 38 41 43 47 50 51 52 52 52 52 53 53 52 51 49 46 44 42 40 39 39 40 42 44 45 46 47 48 50 51 51 50 51 52 53 55 55 54 53 51 48 45 43 42 42 42 43 44 46 48 50 51 51 51 51 51 51 49 46 42 39 37 34 32 30 29 29 29 28 28 28 28 27 27 27 27 26 26 26
35 35 35 35 34 34 34 35 36 38 42 46 49 51 51 52 52 52 53 53 52 50 48 47 46 44 42 41 41 42 42 43 43 43 44 46 48 49 51 51 52 53 53 53 52 51 50 49 47 46 45 45 45 45 45 47 48 50 51 52 52 52 51 50 47 44 41 38 35 33 31 30 30 30 29 29 29 29 29 28 27 27 26 25 25 25
35 35 36 35 35 35 35 35 36 37 40 43 46 47 48 48 49 50 51 51 51 50 49 48 47 46 45 43 42 42 42 42 41 41 41 42 44 46 47 49 50 51 51 50 50 49 49 49 48 48 48 49 49 49 48 49 50 51 52 52 53 52 50 48 45 42 40 37 34 32 31 31 31 31 30 30 30 30 30 29 28 26 25 24 24 24
33 35 36 36 36 36 36 36 37 38 40 42 44 45 46 46 46 47 48 49 49 49 48 48 47 46 45 43 42 42 41 41 41 40 39 40 41 42 43 44 45 46 47 47 47 47 48 48 48 49 49 50 51 51 51 51 52 53 53 54 53 52 50 47 45 42 39 36 33 32 32 32 32 32 32 32 32 32 31 29 27 26 24 24 23 23
30 32 34 35 36 36 36 36 37 39 41 42 43 44 45 45 45 46 46 46 46 47 46 46 45 44 43 42 41 41 40 40 40 39 39 38 38 38 39 39 39 40 42 44 45 46 47 48 49 49 49 50 51 51 52 53 53 54 54 55 54 52 50 48 45 42 38 35 33 33 33 33 34 34 33 33 33 32 30 28 26 25 24 23 23 23
25 28 31 33 34 34 34 35 36 38 40 41 42 42 43 43 44 44 44 44 44 44 44 43 43 42 41 40 40 40 39 39 38 37 37 36 35 34 34 34 36 38 41 44 46 47 49 50 50 50 50 50 50 51 51 52 53 53 53 53 52 50 48 45 42 38 35 33 33 34 34 35 35 35 34 34 32 30 28 27 25 24 24 24 23 24
20 24 27 30 32 33 34 35 36 37 38 39 39 39 39 39 40 41 41 42 42 42 41 40 40 40 39 39 39 39 38 37 36 35 34 32 31 30 31 34 37 42 46 48 49 50 50 51 51 51 51 51 51 50 51 51 51 51 50 49 47 45 43 40 37 35 33 33 34 35 35 35 35 34 33 32 30 28 27 25 25 24 24 24 24 24
16 19 22 25 27 29 31 32 33 34 35 36 36 36 35 35 35 36 37 38 38 38 38 38 38 38 38 37 38 38 37 35 34 33 31 29 29 30 34 38 43 47 50 51 50 50 51 51 51 50 50 50 50 50 49 49 48 47 45 44 42 40 38 35 34 33 34 35 35 36 36 35 34 33 31 30 28 27 25 25 25 24 25 25 25 25
15 16 17 19 21 23 25 26 27 28 30 31 32 32 31 31 31 31 32 33 33 34 34 35 35 35 35 36 36 36 36 34 33 32 31 29 31 36 41 44 47 50 52 52 51 50 51 51 50 50 49 49 49 48 46 45 44 42 41 39 37 36 35 34 34 35 35 36 36 36 35 34 32 31 29 28 27 26 25 25 25 25 26 26 26 26
17 16 16 16 17 18 19 20 21 22 23 24 25 26 26 26 26 26 27 27 28 29 30 30 31 31 32 32 33 33 34 33 33 32 32 32 35 40 45 47 48 51 52 52 51 49 49 49 49 48 47 47 46 45 43 41 40 39 37 36 36 35 35 36 36 37 37 36 36 35 33 32 31 29 28 27 27 26 26 26 26 27 27 27 28 28
20 19 18 17 17 17 17 18 18 19 19 20 21 21 21 21 22 22 22 22 23 24 25 26 26 26 27 28 28 29 30 31 31 31 32 34 37 41 45 47 49 50 51 51 49 47 47 47 46 46 45 44 43 41 40 38 37 37 36 36 36 37 37 38 38 37 36 35 34 33 32 31 30 29 28 28 28 27 27 27 27 28 28 28 29 29
20 20 20 19 19 19 18 18 18 18 19 19 20 20 19 19 19 19 18 18 19 20 21 21 22 22 23 23 23 24 25 27 28 29 30 33 36 40 43 46 48 50 50 50 48 46 45 44 43 43 43 42 40 39 38 38 37 37 37 38 38 38 38 38 37 36 35 34 32 31 31 30 30 29 29 29 28 28 28 28 28 29 29 29 29 30
21 21 20 20 20 20 20 20 20 20 20 20 20 20 20 19 19 18 17 17 17 18 18 18 19 19 20 20 19 19 20 22 24 26 28 30 34 37 40 43 46 48 48 49 49 48 46 44 43 42 42 41 40 39 39 39 39 39 39 39 39 39 38 37 35 34 33 32 32 31 31 30 30 30 29 29 29 29 29 29 29 29 30 30 31 31
21 21 21 21 21 21 21 21 21 21 21 21 21 21 20 20 19 18 18 18 17 17 17 17 17 18 18 18 18 18 18 19 21 23 25 28 32 35 38 40 43 46 47 48 49 49 49 48 46 45 44 43 42 41 41 41 41 41 40 40 39 38 37 35 34 34 33 32 31 31 31 30 30 30 30 30 30 30 30 30 30 31 31 31 32 32
21 21 21 21 21 22 22 22 22 22 22 22 22 21 21 20 19 19 19 19 18 18 18 18 17 18 18 18 18 18 18 19 21 23 25 28 31 34 36 38 40 42 44 45 45 46 47 48 48 47 46 46 45 44 43 42 42 42 41 39 38 37 36 35 34 34 33 32 31 31 31 30 30 30 30 30 30 31 31 31 31 32 32 33 33 33
22 22 22 22 22 22 22 22 23 23 23 22 22 22 21 20 20 19 19 19 19 19 19 18 18 19 19 19 19 19 20 21 23 24 26 28 30 32 33 35 36 38 40 41 42 43 44 45 46 46 46 46 45 45 44 43 42 41 40 39 38 37 36 35 35 34 33 32 31 31 31 30 30 30 30 30 31 31 31 32 32 32 33 33 33 34
22 22 22 22 22 23 23 23 23 23 23 23 23 23 22 22 21 20 20 19 19 19 19 19 19 19 20 20 21 22 23 24 24 25 27 28 29 30 32 33 34 35 37 38 40 41 42 42 43 43 44 44 44 43 42 42 41 40 39 38 38 37 36 36 35 34 33 32 32 31 30 30 30 30 31 31 31 31 32 32 32 32 33 33 33 33
24 24 24 23 23 23 24 24 24 24 25 25 25 24 24 23 23 22 21 20 20 20 20 19 20 20 21 21 22 23 25 25 26 27 28 29 30 30 31 32 33 34 35 37 38 39 40 41 41 41 41 41 41 40 40 39 39 39 38 38 37 36 36 35 34 33 33 32 31 31 30 30 30 30 31 31 31 31 32 32 32 32 32 32 33 33
27 27 26 25 25 25 25 25 25 26 26 26 26 26 26 25 24 23 23 22 22 21 22 22 22 22 23 23 24 25 26 26 27 28 29 30 31 31 32 33 34 35 35 36 37 38 38 39 39 39 39 39 39 38 38 37 37 37 37 37 36 36 35 34 33 32 32 32 31 31 30 30 30 31 31 31 31 31 32 32 32 32 32 32 32 32
30 30 29 28 28 27 27 27 27 27 27 27 28 27 27 27 26 25 25 24 24 24 24 24 25 25 26 26 27 28 28 29 29 30 31 32 32 33 33 34 35 35 36 37 37 37 38 38 37 37 37 36 36 36 36 36 36 36 36 36 36 35 34 33 32 31 31 31 31 31 31 31 31 31 31 32 32 32 32 32 32 32 32 32 32 33
32 32 32 31 31 30 30 30 29 29 29 29 29 29 29 28 28 27 27 26 26 26 26 26 27 27 28 29 29 30 30 31 31 31 32 32 33 33 34 34 35 35 36 36 36 36 36 36 36 36 35 35 34 34 34 34 34 35 35 34 34 34 33 32 32 32 32 32 32 32 32 32 32 32 32 32 32 32 32 32 32 32 32 32 32 32
33 33 33 33 33 32 32 32 32 31 31 31 31 31 30 30 29 29 28 28 28 28 28 28 28 28 29 29 30 31 31 31 31 31 32 32 33 33 33 34 34 34 34 35 35 35 34 34 34 34 34 34 33 33 33 34 34 34 34 34 34 34 33 33 33 33 33 33 33 33 33 33 33 33 33 34 33 33 33 33 32 32 32 32 32 32
33 33 34 34 34 34 34 34 34 33 33 33 33 33 32 32 31 30 30 29 29 29 28 28 28 28 28 29 29 30 30 30 30 30 31 31 32 32 32 33 33 33 33 33 33 33 33 33 33 33 33 33 33 33 34 34 34 34 34 34 35 35 34 34 34 34 34 35 35 34 34 34 34 35 35 35 35 35 34 34 33 33 33 32 32 32
32 33 33 33 34 34 34 35 35 35 35 34 34 34 33 33 32 32 31 31 31 30 29 29 29 29 29 29 29 29 29 30 30 30 30 31 31 31 32 32 33 33 33 33 33 33 33 33 33 34 34 34 34 34 35 35 35 35 35 36 36 36 36 36 36 36 36 36 37 36 36 36 36 37 37 37 37 37 36 35 35 34 33 32 32 32
31 31 32 32 33 33 34 34 34 35 34 34 34 34 34 34 33 33 33 33 32 32 31 30 30 30 30 30 30 30 30 31 31 31 31 31 32 32 32 33 33 33 33 34 34 34 34 35 35 35 35 35 35 36 36 37 37 37 37 38 38 38 38 38 38 37 38 38 38 38 38 38 38 39 39 40 39 39 38 37 36 35 34 33 32 32
29 30 30 31 31 32 32 33 33 33 33 33 33 34 34 34 34 34 34 33 33 33 32 32 32 32 32 33 32 32 32 33 33 33 33 33 33 33 34 34 34 35 35 35 36 36 36 36 37 37 37 37 37 37 38 38 38 38 39 39 39 39 40 40 39 39 39 40 40 40 39 39 40 40 41 41 40 40 39 38 37 36 34 33 33 33
28 28 29 29 29 30 30 30 30 31 31 31 32 32 32 32 33 33 33 33 33 33 33 33 33 34 34 34 34 34 34 35 35 35 35 35 35 35 36 36 36 36 37 37 37 38 38 38 38 38 38 38 38 39 39 39 39 39 40 40 40 40 40 41 41 41 41 41 41 41 41 41 41 41 41 41 40 40 39 38 37 36 35 34 34 34
26 27 27 27 28 28 28 28 28 29 29 30 30 30 31 31 31 31 31 32 32 32 32 33 33 34 34 34 34 34 35 35 36 36 36 36 36 36 37 37 37 38 38 38 38 38 39 39 39 39 38 39 39 39 40 40 40 40 41 41 41 41 41 41 41 41 41 41 41 42 42 41 41 41 42 41 40 40 39 38 37 36 36 35 35 35
25 26 26 26 27 27 27 27 27 27 28 28 29 29 29 29 29 29 30 30 30 31 31 32 32 33 33 33 33 33 34 34 35 35 35 35 35 36 36 36 37 37 37 37 38 38 38 38 38 38 38 38 38 39 39 40 40 40 40 41 40 40 40 41 41 41 41 41 41 41 41 41 41 41 41 41 41 40 39 38 38 37 37 36 36 36
24 25 25 26 26 26 26 26 26 27 27 27 27 27 27 28 28 28 28 28 29 29 29 30 30 31 31 31 31 31 32 32 32 33 33 33 33 33 34 34 34 34 35 35 35 35 36 36 36 36 36 36 37 37 38 38 38 38 39 39 39 39 39 39 40 40 39 40 40 40 40 40 40 40 40 40 40 40 39 38 38 38 38 37 37 37
23 24 24 25 25 26 26 26 26 26 26 26 26 26 27 27 27 27 27 27 27 27 28 28 28 28 28 28 28 28 29 29 29 29 30 30 30 30 31 31 31 31 31 32 32 32 32 32 33 34 34 34 34 34 35 35 35 35 36 36 37 37 37 37 37 37 37 38 38 39 39 39 39 39 39 39 39 39 39 38 38 38 38 38 37 37
23 23 24 24 25 25 25 25 25 26 26 26 26 26 26 26 26 26 26 26 26 26 26 26 26 26 26 26 26 26 26 26 26 27 27 27 27 28 28 28 28 28 28 29 29 29 29 29 30 30 31 31 31 31 32 32 32 32 32 33 34 34 34 34 34 35 35 35 36 36 37 37 38 38 38 38 38 38 38 37 37 37 37 37 37 37
Wind_Direction
225 224 222 221 219 219 220 221 222 224 225 226 226 227 226 226 226 226 225 225 225 225 225 225 225 225 225 226 226 227 228 229 230 230 231 232 233 234 234 235 236 236 237 237 237 237 237 237 237 238 238 239 240 242 244 247 248 249 249 250 250 252 253 255 258 260 262 264 264 265 268 271 274 275 276 276 276 275 274 273 271 270 269 267 266 264
224 225 224 222 221 219 219 219 220 221 222 223 224 225 225 225 224 223 223 223 223 224 225 226 226 226 226 226 227 227 228 229 230 231 232 233 234 235 236 237 237 238 239 239 238 237 237 237 237 238 239 240 240 241 242 244 246 248 250 251 252 253 254 256 259 261 264 265 266 267 269 271 273 274 274 274 274 274 272 271 269 268 267 265 263 260
224 224 225 224 222 221 220 220 220 221 221 222 223 223 223 223 223 222 221 221 222 224 226 227 228 229 230 229 229 229 229 229 230 231 232 234 236 237 238 239 240 240 241 241 240 239 238 238 238 239 240 241 242 242 243 243 244 247 249 251 253 253 255 257 260 262 265 266 268 269 270 271 272 272 273 273 273 272 271 269 268 268 268 267 264 262
223 224 224 224 223 222 221 221 222 222 222 222 223 223 223 223 222 221 220 220 222 224 227 229 230 231 232 233 233 232 231 231 230 231 233 235 237 239 240 241 242 243 244 244 243 242 241 240 239 240 241 242 243 244 245 245 246 247 249 251 252 254 255 258 261 263 265 267 268 269 270 270 271 271 270 270 270 270 269 268 269 270 271 271 271 269
223 223 224 224 223 223 223 223 223 224 224 224 224 224 224 224 223 222 221 220 222 224 227 229 229 230 231 232 234 234 234 233 231 231 232 234 237 238 240 242 244 245 246 246 247 246 244 242 241 241 242 243 244 245 246 246 247 248 249 250 252 253 255 258 260 263 264 266 267 268 268 269 268 268 267 267 267 267 268 269 271 274 276 277 277 276
224 223 223 223 223 223 224 224 225 226 226 226 226 226 225 225 225 224 223 223 224 225 227 229 229 229 228 228 231 233 235 235 233 231 231 232 234 236 239 242 244 246 247 248 249 248 247 245 243 243 243 244 245 246 246 247 247 248 249 250 251 253 255 258 260 262 264 265 266 266 266 265 264 263 263 264 265 267 269 272 275 278 280 281 281 280
225 223 222 222 223 224 224 225 226 227 228 229 228 228 227 227 227 226 226 226 226 226 227 229 229 229 228 227 228 231 233 234 233 232 231 232 233 235 238 241 244 246 248 249 250 250 249 247 244 243 244 246 247 248 248 248 248 248 248 249 251 253 255 257 259 261 261 262 262 262 261 261 260 260 261 263 266 269 272 276 278 279 280 281 281 282
227 224 221 220 221 223 224 225 227 228 230 231 231 230 230 229 228 228 228 228 228 228 228 229 230 230 230 229 229 230 231 232 233 233 233 234 235 236 239 241 244 246 248 249 249 250 249 247 244 242 244 246 249 250 249 249 248 247 247 248 250 252 253 255 256 257 257 257 257 257 257 257 258 260 263 266 269 272 274 276 277 278 279 280 281 282
229 225 221 219 221 223 225 226 227 229 231 232 233 232 231 230 229 229 229 229 229 229 229 230 231 232 232 232 232 233 233 234 235 236 237 238 239 241 242 244 246 247 249 249 249 249 248 246 243 241 242 246 249 249 247 245 244 243 243 244 246 248 249 250 251 252 252 253 254 255 256 257 260 262 265 267 269 271 273 274 276 277 279 280 281 281
230 224 220 220 223 227 230 230 230 231 233 234 235 234 233 231 230 229 228 228 229 229 229 230 231 232 232 233 235 236 237 238 239 240 241 243 244 245 246 247 248 249 249 250 250 249 247 245 242 240 242 248 252 251 246 242 240 239 239 240 241 242 244 245 246 248 249 251 252 254 256 259 261 263 266 267 269 270 271 273 275 277 278 279 279 280
230 224 220 222 227 232 234 234 233 233 233 234 235 236 235 234 231 229 228 228 228 229 229 230 230 231 232 233 235 236 238 239 240 242 244 245 246 247 247 248 249 249 250 250 249 248 247 245 242 241 243 250 255 253 247 242 239 237 237 237 238 240 241 243 245 247 249 251 253 255 258 260 262 264 265 267 268 270 272 273 275 277 278 278 278 278
229 224 222 224 229 234 236 236 235 233 232 232 233 235 237 237 235 233 230 228 228 228 229 229 230 231 232 233 234 235 237 238 239 241 243 244 246 246 247 247 248 248 248 248 248 247 246 245 243 242 243 250 254 253 247 243 240 238 238 239 240 241 243 245 247 249 251 253 255 257 258 260 262 264 266 267 269 271 273 275 276 277 278 278 278 279
229 225 223 225 229 233 236 237 236 234 232 231 231 234 238 240 239 236 233 231 229 228 229 229 230 231 232 233 234 235 236 237 238 240 241 242 244 245 245 246 246 246 246 247 247 246 246 245 243 242 243 248 251 249 245 242 240 240 240 241 243 245 246 249 250 252 254 255 257 258 259 261 263 266 268 270 272 274 276 277 278 278 279 280 280 281
230 227 225 225 228 232 236 237 237 236 234 232 231 234 239 240 239 237 235 233 231 230 229 230 231 232 233 234 234 235 236 237 238 238 239 240 242 243 243 244 244 244 245 245 245 246 246 245 244 242 242 245 247 245 242 240 239 240 242 243 245 248 249 251 253 254 255 257 258 259 261 264 266 269 271 273 275 277 278 279 279 280 281 282 282 282
232 230 228 227 228 231 234 237 238 238 237 234 232 233 237 238 236 233 232 232 231 232 232 233 233 234 235 235 236 236 236 237 237 238 238 239 240 241 241 242 242 242 243 243 244 246 247 247 246 245 244 245 245 243 241 239 239 241 243 245 247 249 251 253 254 255 256 257 258 260 263 266 269 272 273 275 276 278 278 279 279 280 281 282 282 281
235 235 233 232 231 232 234 236 239 240 238 234 232 233 236 236 233 230 228 228 230 232 235 236 237 238 237 238 238 238 237 237 237 237 237 238 239 239 240 239 239 240 240 241 243 246 248 249 249 248 247 247 246 244 242 241 241 242 244 246 248 250 252 253 254 255 256 257 259 262 265 268 270 272 273 275 276 277 277 278 279 280 281 281 279 278
238 237 237 235 234 234 234 236 238 239 237 233 231 232 235 236 234 231 228 227 227 230 234 238 241 242 240 239 238 238 238 238 237 236 236 236 237 238 239 238 238 238 239 240 242 245 248 250 251 251 250 249 248 247 245 244 243 244 245 247 249 251 252 253 254 255 256 257 260 263 266 268 269 271 272 273 275 275 276 277 279 280 280 279 276 274
238 237 236 235 234 233 234 235 236 237 235 232 231 232 235 237 237 235 233 231 230 230 232 236 241 243 242 239 238 238 239 238 238 236 234 234 235 236 238 239 239 240 240 241 243 245 247 249 250 250 249 247 246 247 247 247 247 247 248 249 250 251 252 253 254 255 256 258 261 263 265 266 268 269 271 272 274 274 275 276 277 278 278 276 274 271
235 234 232 231 230 230 230 231 233 233 233 232 232 233 236 237 239 239 239 238 237 235 234 235 237 239 240 239 238 239 239 240 239 238 235 235 235 236 238 240 242 243 243 244 244 245 245 245 246 246 246 244 244 245 246 247 248 248 249 250 251 251 252 253 253 254 255 258 261 263 264 264 266 269 271 273 273 274 274 275 275 276 275 274 271 269
231 230 229 228 227 227 228 229 230 232 233 233 234 235 237 238 239 241 242 242 242 240 238 236 236 236 237 237 238 239 240 240 241 240 239 238 238 239 241 243 245 246 247 246 246 245 244 243 243 243 243 242 243 244 245 246 247 248 248 249 250 250 251 252 252 253 255 258 260 261 262 264 267 270 272 273 273 273 274 274 274 274 273 271 269 268
227 227 227 226 226 226 227 228 231 233 234 234 234 234 235 236 238 240 242 243 243 242 240 238 236 236 236 235 237 238 239 240 241 241 241 241 241 242 243 245 247 248 249 248 247 246 244 244 244 244 243 244 244 244 245 246 247 248 248 249 249 250 251 251 252 253 256 258 260 261 262 265 269 272 273 273 274 274 274 274 274 272 271 269 267 266
225 225 225 224 224 224 225 226 228 230 231 231 230 230 231 233 235 238 240 242 242 242 240 239 237 237 236 236 237 238 239 240 240 241 241 242 243 243 245 246 248 249 250 249 248 247 246 246 246 245 245 245 246 246 246 246 247 247 248 249 250 251 251 252 253 255 257 259 261 262 265 269 272 274 274 275 275 276 276 274 273 270 267 265 264 263
226 226 226 225 225 224 224 224 224 224 224 225 225 226 228 230 233 236 238 239 240 240 239 238 237 237 236 236 237 237 238 238 239 239 240 241 242 243 244 245 247 248 249 248 247 245 244 243 242 242 242 243 244 244 244 245 245 246 248 249 250 251 252 253 255 257 259 260 262 265 269 272 275 276 276 277 277 277 276 273 270 266 263 262 261 261
225 226 226 226 225 224 223 222 221 221 221 221 223 225 227 229 231 233 234 235 236 236 236 236 235 235 235 234 235 235 236 236 236 236 237 237 239 240 242 244 245 246 244 241 238 236 234 233 232 233 234 236 237 238 240 241 242 244 246 248 249 251 252 254 255 257 259 261 264 268 272 274 276 277 277 277 276 275 273 269 266 262 260 259 259 259
224 224 223 223 222 221 220 219 219 219 219 221 223 225 227 228 229 229 230 230 230 231 231 231 231 231 232 232 232 232 233 233 233 233 233 233 234 235 238 240 241 238 232 227 225 224 224 223 224 225 226 228 230 232 235 237 239 241 243 245 247 248 250 252 255 257 260 263 267 271 273 275 276 276 276 275 274 271 269 265 262 260 259 258 258 257
223 221 220 219 218 218 218 218 218 218 219 220 222 223 224 224 224 224 224 225 225 225 226 226 227 228 229 229 229 229 230 230 230 230 229 229 230 231 232 232 229 224 218 216 216 217 218 219 220 221 223 225 227 230 232 234 237 239 241 242 244 246 249 252 255 258 262 266 270 272 274 275 275 275 273 272 270 268 265 263 262 261 260 260 259 258
222 220 218 217 216 215 216 216 217 217 218 218 218 217 216 215 215 217 218 220 221 222 223 224 225 225 226 226 226 226 226 225 225 224 223 223 224 225 224 222 219 215 213 212 213 214 216 217 219 221 222 224 227 229 231 233 235 237 239 241 244 247 250 254 258 262 266 269 272 273 274 274 274 273 271 269 268 266 265 264 264 263 263 262 261 260
227 223 220 217 214 213 212 212 212 213 213 213 212 211 209 207 207 209 212 215 217 218 220 221 222 223 223 223 223 223 222 221 219 218 216 216 217 219 218 216 215 214 212 211 212 214 216 217 219 221 223 225 227 229 231 233 235 238 240 243 246 250 254 259 263 266 269 272 273 274 274 273 273 271 270 268 267 267 266 266 265 265 265 265 264 263
238 232 227 222 218 214 212 209 208 208 207 207 206 206 206 205 205 207 209 211 212 214 216 217 218 219 220 221 222 221 220 218 217 215 213 212 214 215 215 215 215 214 213 212 213 214 216 218 220 222 224 226 227 229 232 234 237 240 243 247 251 255 260 264 267 269 271 272 273 273 273 273 272 271 270 270 269 268 267 267 266 266 266 266 265 265
245 242 238 233 229 224 220 216 213 211 209 209 208 208 208 208 208 209 210 210 209 210 212 213 213 215 216 218 219 220 219 218 217 215 213 214 215 216 216 216 216 216 215 214 214 215 217 220 222 224 226 228 230 232 235 238 242 245 249 253 258 261 265 268 270 271 272 272 273 273 273 273 272 272 272 271 270 269 268 267 267 266 266 266 266 265
244 244 243 241 239 236 232 229 226 223 221 218 217 216 215 214 214 214 213 212 211 211 212 212 211 212 213 214 216 219 220 220 219 217 216 216 218 219 219 219 219 219 219 218 218 219 221 224 227 228 230 233 236 238 241 245 249 253 256 260 263 266 268 270 271 271 272 272 272 273 273 273 273 273 273 272 271 270 269 268 267 266 266 265 265 265
239 240 241 241 242 242 241 239 237 235 233 231 229 227 225 223 222 221 221 219 218 218 217 216 215 214 214 213 215 219 221 222 221 220 220 220 221 222 222 222 222 223 224 224 225 226 227 230 232 235 237 240 244 247 249 252 256 259 262 264 266 268 269 270 271 271 271 272 272 272 273 273 273 272 272 271 271 270 268 267 267 266 265 265 264 264
235 236 237 238 239 241 243 244 244 244 243 242 240 238 235 233 232 231 230 229 227 226 225 225 223 222 220 219 219 221 224 225 224 223 223 223 223 223 224 225 225 226 228 230 231 233 234 235 238 240 243 246 250 253 255 258 260 262 264 266 267 268 269 269 270 270 271 271 271 271 271 271 271 271 270 269 268 268 267 266 265 264 264 263 263 263
233 233 234 234 235 237 239 242 244 247 248 249 248 247 245 243 240 239 238 236 235 234 233 232 231 229 229 227 227 227 228 228 227 227 226 226 225 225 226 227 229 230 232 234 235 237 239 240 242 244 247 250 253 256 258 260 262 263 265 265 266 267 268 268 269 269 269 269 269 269 269 269 268 268 267 267 266 266 265 265 264 264 263 263 263 262
232 232 232 231 232 232 234 237 240 243 246 248 250 250 250 248 246 244 242 242 241 240 238 237 235 234 233 232 231 231 231 230 230 230 230 229 229 230 230 231 233 234 236 237 239 240 242 243 245 247 249 251 254 256 258 260 261 262 263 264 265 266 267 267 267 267 267 267 267 266 266 266 266 265 265 264 264 264 264 263 263 263 263 263 262 262
230 231 230 230 230 230 231 232 235 237 240 243 246 247 248 248 247 245 244 243 243 242 241 239 238 236 234 233 232 231 231 231 231 231 232 232 233 233 234 235 236 238 239 240 241 242 244 245 247 248 250 252 253 255 257 258 260 261 262 263 264 265 266 266 266 266 266 265 265 264 264 264 263 263 263 263 263 263 263 263 263 263 263 263 263 263
230 230 230 230 230 230 230 231 232 234 236 239 241 242 243 244 244 244 243 243 242 241 240 239 237 236 234 233 233 232 231 231 231 231 232 232 233 235 236 237 237 238 240 241 242 243 244 245 247 248 250 251 253 254 256 257 258 260 261 262 263 263 264 265 264 264 264 263 263 262 262 261 261 262 262 261 262 262 262 262 262 263 263 263 263 263
229 230 230 230 230 230 230 231 231 233 234 236 238 239 240 240 241 241 241 240 240 239 237 236 235 234 233 232 232 232 232 231 231 231 232 232 233 234 235 236 237 238 239 241 242 243 244 246 247 249 250 252 253 255 256 258 259 260 260 261 261 262 262 263 262 262 262 261 261 260 260 260 260 260 261 261 261 261 262 262 263 263 263 263 263 263
229 230 230 230 230 231 231 231 231 232 233 235 236 237 238 238 238 238 238 238 237 236 235 234 233 232 232 231 231 232 232 231 231 232 232 233 233 234 235 236 238 239 240 241 243 244 245 247 248 250 251 252 254 255 256 257 258 259 259 259 260 260 260 260 260 260 260 260 260 260 259 259 260 260 260 261 261 261 262 263 263 263 264 264 264 264
229 230 230 230 230 231 231 231 232 232 233 234 235 236 237 237 237 236 236 235 235 234 234 233 233 232 232 232 232 232 232 232 232 233 233 234 235 236 236 238 239 240 241 242 244 246 247 248 249 250 251 252 253 254 255 256 256 257 257 258 258 258 258 259 259 259 259 259 259 259 260 260 260 260 261 261 262 262 263 263 264 264 264 264 265 265
230 230 231 231 231 231 231 232 232 232 232 233 234 235 235 235 235 235 235 235 234 234 233 233 233 233 233 233 234 234 234 233 233 234 234 235 236 237 238 239 240 241 242 243 245 246 248 248 249 250 250 251 251 252 253 253 254 255 256 256 257 257 258 258 258 258 259 259 259 259 260 260 260 261 261 262 262 262 263 263 264 264 265 265 266 267
230 231 231 231 231 231 231 232 232 232 233 233 234 234 234 235 235 235 235 235 235 234 234 234 234 234 234 234 235 235 235 235 235 235 236 237 238 238 239 240 241 242 243 244 245 246 247 247 248 248 249 249 249 250 251 252 253 254 255 255 256 257 257 257 257 258 258 259 259 259 260 260 261 262 262 262 262 262 262 262 262 263 264 265 266 266
230 230 231 231 231 231 232 232 232 232 233 233 234 234 235 235 235 236 236 235 235 235 235 235 235 235 236 236 236 236 236 237 237 237 238 238 239 240 240 241 242 242 243 244 244 245 246 246 247 248 248 248 249 250 251 252 253 253 254 255 256 257 257 257 257 258 258 259 259 259 260 260 261 262 263 263 263 262 262 261 261 261 262 263 264 265
229 229 230 230 230 231 231 232 232 232 233 234 234 235 235 235 236 236 236 237 236 236 236 236 236 237 237 237 237 237 237 238 239 239 240 240 240 241 242 242 243 243 244 245 245 246 247 247 248 248 249 249 250 250 251 252 253 254 255 256 256 257 257 257 257 257 258 258 259 260 260 260 261 262 263 263 263 263 262 261 260 260 260 260 261 262
228 228 229 229 230 230 231 231 232 232 233 234 234 235 235 235 236 236 237 237 237 237 237 237 237 237 238 238 238 238 239 239 240 240 241 242 242 243 244 244 245 245 246 247 247 248 249 249 250 250 251 251 252 253 253 254 254 255 256 256 257 257 257 257 257 257 257 258 259 259 259 260 260 261 262 262 263 263 262 261 260 259 259 259 259 259
228 228 229 229 229 230 230 231 231 232 232 233 234 234 235 235 235 236 236 237 237 237 237 237 237 237 238 238 238 238 239 240 241 241 242 243 244 244 245 246 247 247 248 248 249 250 251 251 252 252 253 254 254 255 255 255 255 256 256 256 256 256 257 257 257 257 257 258 258 258 258 259 259 260 260 261 261 261 261 260 259 259 259 258 258 257
228 228 229 229 230 230 231 231 231 231 232 232 233 233 234 234 234 235 235 236 236 236 236 236 237 237 237 238 238 238 239 240 242 242 243 244 244 245 246 247 248 248 249 249 250 251 252 252 253 254 254 255 255 255 256 256 256 256 256 256 256 256 256 256 256 257 257 257 257 257 257 258 258 258 259 259 259 259 259 259 259 258 258 258 258 258
228 228 228 228 229 229 230 230 231 231 231 232 232 233 233 233 234 234 234 234 235 235 235 235 236 236 237 237 238 238 239 240 241 242 243 244 245 245 246 247 248 248 249 250 250 251 252 253 253 254 254 254 254 254 255 255 255 255 255 255 255 255 255 255 255 256 256 256 256 256 257 257 257 257 257 257 257 257 257 258 258 258 258 258 258 258
227 227 227 227 227 228 228 229 229 229 230 231 231 232 232 233 233 233 233 233 234 234 234 235 235 236 237 237 238 238 239 240 241 242 243 244 244 245 246 246 247 248 248 249 250 250 251 252 252 253 253 253 253 254 254 254 253 253 254 255 255 255 254 254 255 255 255 255 255 255 256 256 256 256 256 256 256 256 257 257 258 258 259 259 259 259
227 226 226 226 226 226 226 227 227 228 228 229 230 230 231 231 232 232 232 233 233 233 234 234 235 236 236 237 237 238 239 240 241 241 242 243 244 245 245 246 247 247 248 248 249 249 250 251 251 252 252 252 252 253 253 253 252 252 253 253 254 255 255 255 254 254 254 254 254 255 255 255 255 256 256 256 257 257 258 258 258 259 259 260 260 260
226 226 225 225 225 225 225 225 225 226 226 227 228 228 229 229 230 231 231 232 232 233 233 234 235 235 236 236 237 238 238 239 240 241 241 242 243 244 245 245 246 247 247 248 249 249 249 250 251 251 251 252 252 252 253 254 253 252 252 253 254 255 255 255 255 255 254 254 254 255 255 256 256 256 257 257 258 259 259 259 259 259 260 261 261 262
Height
3066 3067 3068 3069 3070 3071 3072 3073 3075 3076 3078 3080 3081 3082 3083 3085 3086 3087 3089 3091 3092 3094 3095 3096 3098 3099 3100 3101 3102 3104 3105 3106 3107 3108 3110 3111 3112 3113 3114 3115 3116 3117 3119 3120 3121 3122 3122 3123 3123 3124 3124 3124 3125 3126 3126 3127 3128 3128 3129 3129 3130 3130 3130 3129 3129 3129 3130 3131 3131 3132 3132 3133 3133 3134 3135 3135 3135 3136 3136 3136 3135 3135 3135 3136 3136 3137
3064 3066 3066 3067 3067 3068 3069 3071 3072 3074 3076 3077 3079 3080 3081 3082 3084 3085 3087 3088 3090 3091 3093 3094 3096 3097 3098 3099 3100 3101 3102 3103 3105 3106 3107 3109 3110 3111 3112 3113 3114 3115 3116 3117 3118 3119 3119 3120 3120 3121 3121 3121 3122 3122 3123 3124 3125 3126 3127 3127 3127 3127 3127 3126 3126 3127 3128 3129 3129 3130 3130 3131 3131 3132 3132 3132 3133 3133 3133 3132 3132 3132 3132 3133 3133 3133
3061 3063 3064 3065 3065 3066 3067 3069 3070 3071 3073 3075 3076 3077 3079 3080 3081 3083 3085 3086 3087 3089 3091 3092 3093 3095 3095 3096 3098 3099 3100 3101 3102 3103 3105 3106 3107 3109 3110 3111 3112 3113 3114 3115 3115 3116 3116 3117 3118 3118 3118 3119 3119 3120 3121 3121 3122 3123 3125 3126 3126 3125 3124 3123 3124 3125 3126 3127 3127 3127 3128 3129 3129 3130 3130 3130 3130 3130 3130 3130 3129 3129 3130 3130 3130 3130
3058 3060 3061 3062 3063 3064 3065 3066 3068 3069 3071 3072 3074 3075 3076 3077 3078 3080 3082 3083 3085 3086 3087 3089 3091 3092 3093 3094 3095 3096 3097 3099 3100 3101 3102 3104 3105 3106 3107 3108 3110 3111 3112 3112 3113 3113 3114 3115 3115 3116 3116 3116 3116 3117 3118 3119 3120 3121 3122 3123 3123 3122 3121 3121 3122 3123 3124 3125 3125 3125 3126 3126 3127 3127 3127 3127 3127 3127 3127 3127 3126 3127 3127 3127 3127 3127
3055 3057 3058 3060 3061 3061 3062 3064 3066 3067 3068 3070 3071 3072 3073 3074 3076 3077 3079 3080 3081 3083 3084 3086 3088 3090 3091 3092 3093 3094 3095 3096 3097 3099 3100 3101 3102 3103 3104 3106 3107 3108 3109 3110 3110 3111 3111 3112 3113 3113 3113 3114 3114 3115 3116 3117 3118 3119 3120 3121 3120 3119 3118 3119 3120 3121 3121 3122 3123 3123 3123 3124 3124 3124 3124 3124 3124 3125 3125 3125 3125 3125 3125 3125 3125 3125
3051 3053 3056 3057 3057 3058 3060 3061 3063 3064 3066 3067 3068 3069 3070 3071 3073 3075 3076 3077 3078 3080 3081 3083 3084 3086 3088 3090 3091 3092 3092 3093 3094 3096 3097 3098 3100 3101 3101 3102 3104 3105 3106 3107 3108 3108 3109 3110 3110 3111 3111 3111 3112 3113 3114 3115 3116 3117 3117 3117 3116 3116 3116 3116 3117 3118 3119 3120 3120 3121 3121 3121 3121 3121 3121 3121 3122 3122 3123 3123 3124 3124 3124 3124 3124 3124
3048 3050 3052 3053 3055 3056 3057 3059 3061 3062 3063 3064 3065 3066 3068 3069 3070 3072 3073 3074 3076 3077 3078 3080 3081 3083 3085 3086 3088 3089 3089 3090 3092 3093 3094 3095 3096 3097 3098 3099 3101 3102 3103 3104 3105 3106 3106 3107 3108 3109 3109 3109 3110 3111 3111 3112 3113 3114 3114 3113 3113 3113 3113 3114 3115 3116 3117 3117 3117 3118 3118 3118 3118 3118 3118 3119 3119 3120 3121 3121 3122 3122 3122 3122 3122 3122
3044 3046 3048 3050 3051 3053 3055 3056 3058 3060 3061 3061 3062 3063 3065 3066 3067 3069 3070 3071 3073 3074 3076 3077 3078 3080 3081 3083 3084 3085 3086 3087 3089 3090 3091 3092 3093 3094 3095 3096 3097 3099 3100 3101 3102 3103 3104 3105 3106 3106 3107 3107 3108 3109 3109 3110 3111 3111 3110 3109 3109 3110 3111 3111 3112 3113 3113 3114 3114 3115 3115 3115 3116 3116 3116 3116 3117 3118 3119 3119 3119 3120 3120 3120 3120 3120
3039 3042 3044 3046 3048 3050 3052 3054 3056 3057 3058 3059 3060 3061 3061 3063 3064 3066 3067 3069 3070 3071 3073 3074 3076 3077 3078 3080 3081 3082 3083 3084 3085 3086 3088 3089 3090 3091 3092 3093 3095 3096 3097 3098 3099 3100 3101 3101 3103 3103 3104 3105 3106 3107 3108 3108 3107 3107 3106 3106 3106 3107 3107 3108 3109 3109 3110 3111 3111 3112 3112 3113 3113 3114 3114 3115 3115 3116 3116 3116 3117 3117 3118 3118 3118 3118
3036 3038 3041 3043 3045 3047 3049 3051 3052 3054 3056 3057 3057 3058 3059 3060 3061 3062 3064 3065 3066 3068 3070 3071 3073 3074 3076 3077 3078 3079 3080 3081 3082 3083 3085 3086 3087 3088 3090 3091 3092 3093 3094 3095 3096 3097 3098 3099 3100 3101 3101 3102 3104 3105 3106 3105 3104 3103 3102 3102 3102 3103 3104 3104 3105 3106 3107 3108 3109 3110 3110 3111 3111 3111 3112 3113 3113 3113 3114 3114 3115 3115 3116 3116 3116 3116
3033 3035 3037 3039 3041 3044 3046 3048 3049 3051 3053 3054 3055 3056 3056 3057 3058 3059 3061 3061 3063 3065 3067 3068 3070 3071 3073 3074 3075 3076 3077 3078 3079 3081 3082 3083 3084 3086 3087 3088 3089 3090 3091 3092 3093 3094 3095 3096 3097 3098 3099 3101 3102 3102 3102 3101 3100 3100 3099 3099 3100 3100 3101 3101 3102 3104 3105 3106 3106 3107 3108 3108 3109 3109 3110 3111 3111 3111 3112 3112 3112 3113 3113 3113 3114 3114
3030 3032 3034 3036 3038 3041 3043 3045 3046 3047 3048 3049 3051 3052 3054 3054 3055 3056 3057 3059 3060 3062 3064 3065 3067 3068 3070 3071 3072 3073 3074 3075 3076 3077 3079 3080 3081 3083 3084 3085 3086 3087 3088 3089 3090 3091 3091 3092 3094 3096 3097 3099 3100 3100 3099 3098 3098 3097 3097 3097 3098 3098 3099 3100 3101 3102 3103 3104 3104 3105 3106 3106 3106 3107 3108 3108 3109 3109 3110 3110 3110 3111 3111 3111 3111 3111
3027 3029 3031 3033 3035 3038 3039 3041 3041 3043 3044 3045 3046 3048 3050 3051 3053 3054 3055 3056 3057 3059 3061 3062 3064 3066 3067 3068 3069 3070 3071 3072 3073 3075 3076 3077 3078 3080 3081 3082 3083 3084 3085 3086 3087 3088 3089 3090 3091 3093 3095 3096 3097 3097 3097 3096 3096 3095 3095 3096 3096 3097 3098 3098 3099 3100 3101 3101 3102 3103 3103 3104 3104 3105 3106 3106 3107 3107 3107 3108 3108 3108 3108 3108 3108 3108
3024 3026 3028 3030 3032 3034 3036 3037 3038 3039 3040 3042 3044 3046 3048 3049 3051 3051 3052 3053 3055 3056 3058 3059 3061 3062 3064 3065 3066 3067 3069 3070 3071 3072 3073 3075 3076 3077 3078 3079 3080 3081 3082 3083 3084 3085 3086 3087 3089 3090 3092 3093 3094 3094 3094 3094 3093 3093 3093 3094 3094 3095 3096 3097 3097 3098 3099 3100 3100 3101 3101 3102 3102 3103 3103 3104 3104 3105 3105 3105 3105 3106 3106 3106 3106 3106
3021 3023 3025 3026 3028 3030 3032 3034 3035 3036 3038 3040 3042 3044 3046 3047 3048 3049 3050 3051 3052 3053 3055 3056 3058 3059 3061 3062 3063 3064 3065 3066 3067 3069 3070 3071 3073 3074 3075 3076 3077 3078 3079 3081 3081 3082 3083 3084 3085 3086 3088 3090 3091 3091 3091 3091 3091 3091 3091 3092 3093 3094 3094 3095 3095 3096 3096 3097 3098 3099 3099 3100 3100 3101 3101 3101 3102 3102 3102 3103 3103 3103 3103 3103 3103 3103
3018 3020 3021 3023 3025 3027 3029 3031 3033 3035 3036 3038 3039 3041 3042 3044 3045 3046 3047 3048 3050 3051 3052 3054 3055 3056 3057 3058 3059 3061 3062 3063 3064 3065 3067 3068 3069 3071 3072 3073 3075 3076 3077 3078 3079 3079 3081 3081 3082 3084 3086 3087 3088 3089 3089 3089 3089 3089 3089 3090 3091 3091 3092 3093 3093 3094 3095 3095 3096 3096 3097 3097 3098 3098 3099 3099 3099 3100 3100 3100 3100 3101 3101 3101 3101 3101
3016 3017 3019 3021 3022 3025 3026 3028 3030 3031 3032 3034 3036 3037 3039 3041 3041 3043 3044 3045 3046 3048 3049 3051 3051 3053 3054 3055 3056 3057 3059 3060 3061 3062 3064 3066 3066 3067 3069 3070 3071 3073 3074 3075 3076 3077 3078 3079 3080 3081 3083 3085 3086 3086 3087 3087 3087 3087 3087 3088 3089 3089 3090 3090 3091 3092 3092 3093 3093 3094 3095 3095 3096 3096 3096 3097 3097 3097 3097 3098 3098 3098 3098 3098 3098 3098
3011 3013 3015 3017 3019 3021 3023 3025 3027 3028 3029 3031 3032 3034 3037 3038 3039 3040 3041 3042 3043 3044 3046 3047 3049 3050 3051 3052 3054 3055 3056 3058 3058 3059 3061 3063 3064 3065 3066 3067 3068 3069 3071 3072 3073 3075 3076 3077 3078 3080 3081 3082 3083 3084 3085 3085 3085 3085 3086 3086 3087 3087 3088 3088 3089 3090 3090 3091 3091 3092 3092 3093 3093 3094 3094 3095 3095 3095 3095 3095 3095 3096 3096 3096 3096 3096
3007 3009 3011 3013 3015 3017 3019 3021 3022 3024 3026 3027 3029 3031 3034 3035 3035 3036 3038 3039 3040 3041 3043 3044 3046 3047 3048 3050 3051 3052 3054 3055 3056 3056 3059 3060 3061 3062 3063 3064 3065 3066 3067 3069 3071 3072 3074 3075 3076 3078 3079 3080 3081 3082 3082 3083 3083 3084 3084 3084 3085 3085 3086 3086 3087 3088 3088 3089 3089 3090 3090 3091 3091 3091 3092 3092 3092 3093 3093 3093 3093 3093 3093 3093 3093 3093
3003 3005 3007 3008 3011 3013 3015 3016 3018 3021 3023 3025 3027 3029 3030 3031 3031 3033 3034 3036 3037 3039 3040 3041 3042 3044 3045 3047 3048 3049 3051 3052 3053 3054 3056 3057 3059 3060 3061 3062 3062 3063 3064 3066 3067 3069 3071 3072 3074 3075 3076 3077 3078 3079 3080 3081 3081 3081 3082 3082 3082 3083 3083 3084 3085 3085 3086 3086 3087 3087 3088 3088 3088 3089 3089 3089 3090 3090 3090 3090 3090 3090 3090 3091 3091 3091
3000 3002 3003 3005 3007 3009 3011 3012 3015 3018 3021 3023 3025 3026 3026 3027 3028 3030 3031 3032 3034 3036 3037 3038 3039 3041 3042 3044 3045 3046 3046 3048 3050 3051 3052 3054 3056 3057 3058 3059 3060 3060 3061 3063 3064 3066 3067 3069 3071 3072 3073 3074 3075 3076 3077 3078 3079 3079 3080 3080 3080 3081 3081 3081 3082 3083 3083 3084 3084 3085 3085 3085 3086 3086 3086 3086 3087 3087 3087 3087 3087 3087 3088 3088 3089 3089
2997 2999 3000 3002 3004 3005 3007 3009 3012 3015 3017 3020 3021 3022 3023 3024 3025 3026 3028 3029 3031 3031 3033 3034 3036 3037 3039 3041 3042 3043 3043 3045 3046 3047 3049 3051 3053 3054 3055 3056 3057 3058 3059 3060 3061 3063 3065 3066 3067 3069 3070 3071 3072 3073 3074 3075 3076 3076 3077 3077 3078 3078 3079 3079 3080 3080 3081 3081 3081 3082 3082 3082 3083 3083 3083 3083 3084 3084 3084 3085 3085 3085 3086 3086 3086 3087
2995 2996 2998 3000 3001 3002 3004 3006 3008 3010 3012 3015 3016 3017 3019 3021 3022 3024 3025 3026 3027 3028 3029 3031 3033 3035 3037 3038 3039 3040 3040 3041 3043 3045 3046 3048 3049 3051 3052 3053 3055 3055 3056 3058 3059 3061 3061 3063 3064 3065 3066 3068 3069 3070 3071 3071 3072 3073 3074 3074 3075 3076 3076 3076 3077 3077 3078 3078 3079 3079 3079 3080 3080 3080 3080 3081 3081 3081 3082 3082 3082 3083 3083 3084 3084 3085
2993 2994 2996 2997 2999 3000 3001 3003 3005 3006 3008 3010 3012 3014 3016 3017 3019 3020 3021 3023 3024 3025 3027 3029 3031 3032 3034 3035 3036 3037 3037 3038 3040 3042 3043 3045 3046 3048 3049 3051 3052 3053 3055 3056 3057 3058 3059 3060 3061 3062 3063 3064 3065 3066 3067 3068 3068 3069 3070 3071 3072 3073 3073 3074 3074 3075 3075 3076 3076 3076 3076 3077 3077 3077 3078 3078 3079 3079 3079 3080 3080 3081 3081 3081 3082 3082
2991 2993 2994 2995 2996 2998 2999 3000 3002 3003 3005 3007 3008 3010 3012 3013 3015 3016 3017 3019 3021 3022 3024 3026 3027 3029 3030 3031 3032 3034 3034 3036 3037 3039 3040 3041 3043 3046 3047 3048 3050 3051 3053 3053 3054 3055 3056 3056 3058 3059 3060 3061 3061 3062 3063 3064 3065 3066 3067 3068 3069 3070 3070 3071 3071 3072 3072 3073 3073 3074 3074 3075 3075 3075 3076 3076 3076 3076 3077 3077 3078 3078 3079 3079 3079 3080
2991 2991 2992 2993 2994 2995 2996 2998 2999 3001 3002 3004 3006 3007 3009 3010 3012 3013 3015 3016 3018 3019 3021 3022 3024 3025 3026 3028 3030 3031 3032 3033 3034 3036 3037 3038 3041 3043 3046 3047 3048 3049 3049 3049 3050 3051 3052 3053 3054 3055 3056 3057 3058 3059 3060 3061 3062 3063 3064 3065 3066 3066 3067 3068 3069 3069 3070 3070 3071 3071 3072 3072 3073 3073 3073 3073 3074 3074 3074 3075 3075 3076 3076 3076 3077 3077
2990 2991 2991 2992 2993 2994 2995 2996 2997 2999 3000 3001 3003 3004 3006 3007 3009 3011 3012 3013 3015 3016 3018 3019 3020 3022 3023 3025 3027 3028 3029 3031 3032 3034 3035 3037 3039 3041 3043 3044 3045 3045 3045 3045 3046 3048 3049 3050 3051 3052 3054 3055 3056 3056 3057 3058 3059 3060 3061 3062 3063 3064 3065 3066 3066 3067 3067 3068 3068 3069 3069 3070 3070 3070 3071 3071 3071 3071 3071 3072 3072 3073 3073 3074 3074 3075
2989 2990 2991 2991 2992 2993 2994 2995 2996 2997 2999 3000 3001 3002 3004 3005 3007 3009 3010 3011 3013 3014 3016 3017 3018 3019 3021 3022 3024 3026 3027 3029 3030 3031 3033 3036 3038 3040 3040 3041 3041 3041 3042 3042 3043 3045 3046 3048 3049 3050 3051 3052 3053 3054 3055 3056 3057 3058 3059 3060 3061 3061 3062 3063 3064 3065 3065 3066 3066 3066 3067 3067 3067 3067 3067 3068 3068 3068 3069 3069 3070 3070 3071 3071 3072 3072
2988 2989 2990 2991 2991 2992 2993 2994 2995 2996 2998 2999 3000 3001 3003 3004 3006 3007 3008 3009 3011 3013 3014 3015 3016 3017 3019 3021 3022 3024 3026 3027 3028 3030 3031 3033 3035 3036 3037 3038 3039 3039 3040 3040 3041 3043 3044 3045 3046 3047 3049 3050 3051 3052 3053 3054 3055 3056 3057 3058 3059 3060 3060 3061 3061 3062 3063 3063 3063 3063 3064 3064 3064 3064 3065 3065 3065 3066 3066 3066 3067 3068 3068 3069 3069 3070
2987 2988 2989 2990 2990 2991 2991 2992 2994 2995 2996 2998 2999 3001 3002 3003 3005 3006 3007 3008 3010 3011 3012 3013 3014 3016 3017 3019 3021 3022 3024 3025 3026 3028 3030 3031 3032 3033 3034 3036 3037 3037 3038 3038 3040 3041 3042 3043 3044 3046 3046 3047 3048 3050 3051 3052 3053 3054 3055 3056 3056 3057 3058 3058 3059 3059 3060 3060 3060 3061 3061 3061 3061 3061 3062 3062 3062 3063 3064 3064 3065 3065 3066 3066 3067 3067
2986 2987 2988 2988 2989 2989 2990 2991 2992 2993 2995 2996 2998 2999 3001 3002 3003 3004 3006 3007 3008 3009 3010 3011 3012 3014 3015 3016 3018 3020 3022 3023 3025 3027 3028 3029 3030 3031 3032 3034 3036 3036 3036 3037 3038 3039 3040 3041 3043 3044 3045 3046 3046 3048 3049 3050 3051 3052 3052 3053 3054 3055 3055 3056 3056 3056 3056 3057 3057 3057 3058 3058 3058 3059 3059 3060 3060 3061 3061 3062 3062 3063 3063 3064 3064 3065
2985 2986 2986 2987 2987 2988 2989 2990 2991 2992 2993 2995 2996 2998 2999 3001 3002 3003 3004 3006 3006 3007 3008 3009 3011 3012 3013 3015 3016 3018 3020 3022 3024 3025 3027 3028 3029 3030 3031 3033 3034 3035 3036 3036 3037 3038 3039 3040 3041 3043 3044 3044 3045 3046 3047 3048 3049 3049 3050 3051 3051 3052 3052 3053 3053 3053 3054 3054 3055 3055 3055 3055 3056 3056 3057 3057 3058 3058 3059 3059 3060 3060 3061 3061 3061 3062
2983 2984 2984 2985 2986 2986 2987 2988 2989 2991 2992 2993 2995 2996 2997 2999 3000 3001 3003 3004 3005 3006 3007 3008 3009 3010 3012 3013 3015 3017 3019 3021 3022 3024 3025 3026 3028 3029 3030 3031 3032 3033 3034 3035 3036 3037 3038 3039 3040 3041 3042 3043 3043 3044 3045 3046 3046 3047 3048 3048 3049 3049 3050 3050 3050 3051 3051 3051 3052 3052 3052 3053 3053 3054 3054 3055 3056 3056 3056 3057 3057 3058 3058 3059 3059 3059
2981 2981 2982 2983 2984 2985 2986 2987 2988 2990 2991 2992 2993 2995 2996 2997 2999 3000 3001 3002 3003 3004 3006 3006 3008 3009 3011 3012 3014 3016 3018 3020 3021 3022 3024 3025 3026 3027 3028 3030 3031 3032 3033 3034 3035 3036 3037 3038 3039 3040 3041 3041 3042 3042 3043 3043 3044 3045 3045 3046 3046 3046 3047 3047 3048 3048 3048 3049 3049 3050 3050 3051 3051 3052 3052 3053 3053 3053 3054 3054 3055 3055 3056 3056 3056 3056
2978 2979 2980 2981 2982 2983 2985 2986 2987 2988 2990 2991 2992 2993 2994 2996 2997 2998 2999 3001 3001 3003 3004 3005 3006 3008 3010 3011 3013 3015 3016 3018 3020 3021 3022 3024 3025 3026 3027 3028 3029 3030 3031 3032 3033 3034 3035 3036 3037 3038 3039 3039 3040 3040 3041 3041 3041 3042 3042 3043 3043 3044 3044 3045 3045 3046 3046 3046 3047 3047 3048 3048 3049 3049 3050 3050 3051 3051 3051 3051 3052 3052 3053 3053 3054 3054
2976 2977 2978 2980 2981 2982 2983 2984 2986 2987 2988 2990 2991 2992 2993 2994 2995 2996 2997 2998 3000 3001 3002 3003 3005 3006 3008 3010 3011 3013 3015 3016 3018 3019 3020 3021 3023 3024 3025 3026 3027 3028 3030 3030 3031 3032 3033 3034 3035 3036 3036 3037 3037 3038 3038 3039 3039 3039 3040 3040 3041 3041 3041 3042 3042 3043 3044 3044 3045 3045 3046 3046 3046 3047 3047 3047 3048 3048 3048 3049 3049 3050 3050 3051 3051 3051
2975 2976 2977 2978 2979 2980 2981 2983 2984 2986 2987 2988 2990 2991 2992 2993 2994 2995 2995 2996 2997 2999 3000 3002 3003 3005 3006 3008 3010 3011 3013 3014 3016 3017 3018 3019 3021 3022 3023 3024 3026 3027 3028 3028 3029 3030 3031 3032 3032 3033 3034 3035 3035 3035 3036 3036 3036 3037 3037 3037 3038 3039 3039 3039 3040 3041 3041 3042 3042 3043 3043 3044 3044 3044 3044 3045 3045 3046 3046 3046 3047 3047 3048 3048 3048 3049
2973 2974 2975 2976 2977 2979 2980 2981 2982 2984 2985 2986 2988 2989 2990 2991 2992 2993 2994 2995 2996 2997 2998 3000 3001 3003 3005 3006 3007 3009 3010 3012 3013 3015 3016 3017 3019 3020 3021 3022 3023 3024 3025 3026 3026 3027 3028 3029 3030 3031 3031 3032 3032 3033 3033 3034 3034 3034 3034 3035 3035 3036 3036 3037 3038 3038 3039 3039 3040 3040 3041 3041 3041 3042 3042 3042 3043 3043 3043 3044 3044 3045 3045 3046 3046 3046
2971 2972 2973 2975 2976 2977 2978 2980 2981 2982 2983 2985 2986 2987 2988 2989 2990 2991 2992 2993 2994 2995 2997 2998 3000 3001 3002 3004 3005 3007 3008 3010 3011 3012 3014 3015 3016 3018 3019 3020 3021 3022 3023 3024 3024 3025 3026 3026 3027 3028 3029 3030 3030 3031 3031 3031 3031 3031 3031 3032 3033 3033 3034 3035 3036 3036 3036 3037 3037 3038 3038 3039 3039 3039 3040 3040 3040 3041 3041 3041 3041 3042 3042 3043 3043 3043
2969 2970 2971 2973 2974 2975 2976 2978 2979 2980 2981 2983 2984 2985 2986 2987 2988 2989 2990 2991 2992 2994 2995 2996 2998 2999 3001 3002 3003 3005 3006 3007 3009 3010 3011 3013 3014 3015 3016 3017 3018 3019 3020 3021 3021 3022 3023 3024 3025 3026 3026 3027 3028 3028 3028 3028 3028 3029 3029 3030 3030 3031 3032 3033 3033 3033 3034 3034 3035 3036 3036 3036 3037 3037 3037 3037 3037 3038 3038 3038 3039 3039 3039 3040 3040 3041
2967 2968 2969 2971 2972 2973 2975 2976 2977 2978 2980 2981 2981 2982 2984 2985 2986 2987 2988 2990 2991 2992 2993 2995 2996 2997 2998 3000 3001 3002 3004 3005 3006 3008 3009 3010 3011 3012 3013 3014 3015 3016 3017 3018 3019 3020 3021 3021 3022 3023 3024 3025 3025 3025 3026 3026 3026 3026 3027 3027 3027 3028 3029 3030 3031 3031 3031 3032 3033 3033 3034 3034 3034 3034 3035 3035 3035 3035 3035 3036 3036 3036 3036 3037 3037 3038
2965 2966 2967 2968 2970 2971 2972 2974 2975 2976 2977 2978 2979 2980 2981 2983 2984 2985 2986 2988 2989 2990 2991 2993 2994 2995 2996 2998 2999 3000 3001 3003 3004 3005 3006 3007 3009 3010 3011 3011 3012 3014 3015 3016 3016 3017 3018 3019 3020 3020 3021 3022 3022 3023 3022 3023 3023 3024 3025 3025 3025 3026 3027 3027 3028 3028 3029 3029 3030 3030 3031 3032 3032 3032 3032 3032 3032 3032 3032 3033 3033 3033 3033 3034 3034 3035
2963 2964 2965 2966 2968 2969 2970 2971 2973 2974 2975 2976 2977 2978 2979 2981 2982 2983 2985 2986 2987 2988 2990 2991 2992 2993 2994 2996 2997 2998 2999 3000 3001 3003 3004 3005 3006 3007 3008 3009 3010 3011 3012 3013 3014 3014 3015 3016 3017 3018 3018 3019 3020 3020 3020 3020 3021 3021 3022 3022 3023 3023 3024 3024 3025 3026 3026 3026 3026 3027 3028 3029 3029 3029 3029 3029 3029 3029 3029 3030 3030 3030 3030 3031 3031 3032
2961 2962 2963 2964 2966 2967 2968 2969 2970 2971 2972 2973 2975 2976 2977 2979 2980 2981 2982 2983 2985 2986 2988 2989 2990 2991 2992 2993 2994 2996 2997 2998 2999 3000 3001 3002 3003 3004 3005 3006 3007 3008 3009 3010 3011 3011 3013 3014 3015 3015 3016 3016 3017 3017 3017 3018 3018 3019 3019 3020 3020 3021 3021 3021 3022 3023 3024 3023 3024 3024 3025 3026 3026 3026 3026 3026 3026 3026 3027 3027 3027 3027 3027 3028 3028 3029
2959 2960 2961 2962 2964 2965 2966 2966 2967 2969 2970 2971 2972 2973 2975 2976 2977 2978 2980 2981 2982 2984 2985 2986 2988 2989 2990 2991 2992 2993 2995 2996 2996 2997 2998 3000 3001 3001 3002 3003 3004 3005 3006 3007 3008 3009 3010 3011 3011 3012 3013 3013 3014 3014 3014 3015 3016 3016 3016 3016 3017 3018 3018 3018 3019 3020 3020 3021 3021 3021 3022 3022 3023 3023 3023 3023 3023 3024 3024 3024 3024 3024 3024 3025 3025 3026
2957 2958 2959 2960 2961 2962 2963 2964 2965 2966 2968 2969 2970 2971 2972 2973 2975 2976 2977 2978 2980 2981 2983 2984 2985 2986 2987 2988 2990 2991 2992 2993 2994 2995 2996 2997 2998 2999 3000 3001 3002 3003 3004 3005 3006 3006 3007 3008 3009 3009 3010 3010 3011 3011 3011 3012 3012 3013 3013 3013 3014 3015 3015 3015 3016 3016 3017 3018 3018 3018 3018 3019 3020 3020 3019 3020 3020 3021 3021 3021 3021 3021 3021 3021 3022 3022
2955 2956 2957 2958 2959 2960 2961 2962 2963 2964 2965 2966 2967 2968 2970 2971 2972 2974 2975 2976 2977 2979 2980 2981 2982 2983 2984 2986 2987 2988 2990 2990 2991 2992 2993 2995 2996 2996 2997 2998 2999 3000 3001 3002 3003 3003 3004 3005 3006 3006 3006 3007 3007 3007 3008 3008 3009 3010 3009 3010 3011 3012 3012 3012 3013 3013 3014 3015 3015 3015 3015 3016 3016 3016 3016 3016 3017 3018 3018 3018 3018 3018 3018 3018 3019 3019
2953 2954 2955 2956 2957 2957 2958 2960 2961 2962 2963 2964 2965 2966 2967 2969 2970 2971 2972 2974 2975 2976 2977 2979 2980 2981 2982 2983 2984 2986 2987 2987 2988 2989 2991 2992 2993 2994 2995 2996 2996 2997 2998 2999 3000 3001 3001 3002 3002 3003 3003 3004 3004 3004 3004 3005 3006 3006 3006 3006 3007 3008 3009 3009 3010 3010 3011 3011 3011 3011 3012 3013 3013 3013 3013 3014 3014 3014 3015 3015 3015 3016 3015 3016 3016 3016
2951 2952 2953 2954 2955 2956 2957 2958 2959 2960 2961 2962 2963 2964 2966 2967 2968 2969 2970 2971 2973 2974 2975 2976 2977 2978 2980 2981 2982 2983 2984 2985 2986 2987 2988 2989 2990 2991 2992 2993 2994 2995 2996 2996 2997 2997 2998 2999 2999 3000 3000 3001 3001 3001 3001 3002 3003 3003 3004 3004 3004 3005 3005 3006 3006 3007 3008 3008 3008 3008 3009 3010 3010 3010 3011 3011 3011 3011 3011 3012 3012 3012 3012 3012 3012 3012
2949 2950 2951 2952 2953 2954 2955 2956 2957 2959 2960 2961 2961 2963 2964 2965 2966 2967 2968 2969 2971 2972 2973 2974 2975 2976 2977 2978 2979 2980 2981 2982 2983 2984 2985 2986 2987 2988 2989 2990 2991 2992 2993 2993 2994 2995 2995 2996 2996 2996 2997 2998 2998 2998 2998 2999 2999 3000 3001 3001 3001 3001 3002 3002 3003 3004 3005 3005 3005 3005 3006 3006 3007 3007 3008 3008 3008 3008 3008 3009 3009 3009 3009 3009 3009 3009
2948 2949 2950 2951 2951 2953 2954 2955 2956 2957 2958 2959 2960 2961 2962 2963 2964 2965 2966 2967 2969 2970 2971 2972 2973 2974 2975 2976 2977 2978 2979 2980 2981 2982 2983 2984 2985 2986 2986 2987 2988 2989 2990 2991 2991 2992 2992 2993 2993 2993 2994 2995 2995 2996 2996 2996 2996 2997 2998 2998 2998 2998 2999 2999 3000 3000 3001 3002 3002 3002 3003 3004 3004 3004 3005 3005 3005 3005 3005 3006 3006 3006 3006 3006 3006 3006